カタログに戻る

STARLINK-4265

運用中通信VLEO
NORAD 53011·PAYLOAD·🇺🇸 United States

打ち上げ Jul 7, 2022 から Cape Canaveral Space Force Station

Loading…

次のパス (今後24時間)

TLE

最新Source: CelesTrak SupGP

元期: Sep 14, 2026, 14:40 UTC

1 53011C 22076AB  26257.61159722  .00020420  00000+0  60321-3 0  2571
2 53011  53.1594 308.9211 0001316  69.1781 342.2630 15.34385663    11

AllMySatでSTARLINK-4265をリアルタイム追跡

Download on the App Store